This is the latest recevied weather packets stored in our database for station/object WX7FGZ-6. If no packets are shown the sender has not sent any weather packets the latest 1 day(s).
| Time | Temp. | Humidity | Pressure | Rain* | Wind** | Luminosity | Snow |
|---|---|---|---|---|---|---|---|
| 1778073930 | -3.89° C | 79% | 1016.3 hPa | 0 mm | - | - | - |
| 1778073104 | -3.89° C | 77% | 1016 hPa | 0 mm | - | - | - |
| 1778073030 | -3.89° C | 77% | 1016 hPa | 0 mm | - | - | - |
| 1778072730 | -3.89° C | 78% | 1016 hPa | 0 mm | - | - | - |
| 1778072513 | -3.89° C | 77% | 1016 hPa | 0 mm | - | - | - |
| 1778071231 | -4.44° C | 80% | 1015.7 hPa | 0 mm | - | - | - |
| 1778069730 | -4.44° C | 81% | 1015.4 hPa | 0 mm | - | - | - |
| 1778069130 | -4.44° C | 82% | 1015.4 hPa | 0 mm | - | - | - |
| 1778068830 | -4.44° C | 82% | 1015.3 hPa | 0 mm | - | - | - |
| 1778068530 | -4.44° C | 83% | 1015.3 hPa | 0 mm | - | - | - |
| 1778067630 | -5° C | 84% | 1015.2 hPa | 0 mm | - | - | - |
| 1778066790 | -5° C | 85% | 1015.1 hPa | 0 mm | - | - | - |
| 1778066490 | -5° C | 84% | 1015.1 hPa | 0 mm | - | - | - |
| 1778064567 | -4.44° C | 83% | 1015.1 hPa | 0 mm | - | - | - |
| 1778064267 | -4.44° C | 83% | 1015 hPa | 0 mm | - | - | - |
| 1778063967 | -4.44° C | 82% | 1015 hPa | 0 mm | - | - | - |
| 1778062467 | -4.44° C | 84% | 1014.6 hPa | 0 mm | - | - | - |
| 1778062167 | -5° C | 85% | 1014.6 hPa | 0 mm | - | - | - |
| 1778061867 | -5° C | 84% | 1014.6 hPa | 0 mm | - | - | - |
| 1778061517 | -4.44° C | 83% | 1014.6 hPa | 0 mm | - | - | - |
| 1778060316 | -4.44° C | 85% | 1014.6 hPa | 0 mm | - | - | - |
| 1778060017 | -4.44° C | 86% | 1014.6 hPa | 0 mm | - | - | - |
| 1778059717 | -5° C | 86% | 1014.6 hPa | 0 mm | - | - | - |
| 1778058258 | -4.44° C | 85% | 1014.5 hPa | 0 mm | - | - | - |
| 1778057357 | -4.44° C | 86% | 1014.4 hPa | 0 mm | - | - | - |
* Rain latest hour (hover to see other rain measurements)
** Current wind speed in m/s (hover to see current wind gust speed)